Vertical_Velocity
3 2 0 -9 17 -1 -1 4 5 4 -7 -6 13 -8 -2 -4 -6 -7 -15 19 -2 -3 -2 1 -1 -3 -7 -8 -2 0 6 24 2 -0 0 1 0 -1 -2 -3 2 -4 -3 -1
2 -3 1 -2 1 -1 16 3 13 2 0 -2 5 5 -3 -3 -5 -2 -8 -16 -4 -6 -4 -2 -4 -4 -1 -7 -5 5 7 3 -1 -1 -4 -2 1 -5 -1 -3 -2 -6 -6 2
-7 5 -6 -4 -3 -3 7 23 -3 12 -4 1 -5 11 1 4 -2 -1 1 -3 -7 -9 -5 -3 -2 -0 -4 1 -3 7 -2 -2 -0 4 1 -4 -5 -2 -1 -4 -2 -7 -4 -6
-1 -7 -7 0 -0 3 3 -2 1 3 -2 13 5 4 13 12 -0 -7 -3 -2 -2 -7 -2 -2 -4 -3 -2 -2 -5 -4 -0 -2 -3 -2 -3 -4 1 -4 1 -2 1 -2 9 8
2 5 4 -3 -2 -2 3 2 -3 7 4 -2 10 0 -21 1 -12 5 12 7 -1 -5 -5 -3 -4 2 -0 -2 0 1 -1 1 -0 -2 -0 -2 -3 -4 -1 -1 -7 -3 -7 -6
-1 0 16 -17 -5 -8 -2 -3 -3 -6 -1 -7 1 6 -1 2 5 15 1 5 11 -1 -3 -3 1 -1 -2 -0 -1 -1 0 -0 -1 -2 0 -0 -2 -3 0 -3 -0 1 -2 -4
1 -7 -5 -5 -8 -4 -1 -5 7 -4 -1 -12 20 21 10 -4 0 6 -18 5 8 -1 -1 -3 2 -2 -1 -1 -1 -2 -1 -1 1 1 1 -0 1 1 1 -2 2 1 -1 -0
3 17 14 1 -1 -2 -0 2 4 -13 3 19 -2 -13 29 6 5 -14 -31 -0 13 0 -1 -2 -0 -2 -1 -0 0 -3 -1 2 2 1 1 -1 1 -2 -2 2 -2 -0 1 -2
2 12 4 8 -3 0 -2 -1 1 29 -12 -6 5 -2 9 6 10 12 -4 7 -2 -4 -0 -3 -1 -2 1 1 -1 -0 -3 0 -0 0 0 -0 -1 -1 4 -1 1 0 -1 -1
-7 13 -6 -2 -7 0 -1 -8 -2 2 -1 1 1 -3 13 -3 1 3 -2 -1 -2 -2 -1 -2 -2 -1 1 -2 2 -3 -5 2 5 -2 -2 2 4 3 0 -1 1 2 1 -1
16 37 5 -1 1 2 -1 -3 -3 -4 -4 -5 -4 6 0 -5 -2 -2 -2 -3 0 1 0 2 0 -1 -4 1 4 -0 -4 0 5 -1 -1 4 -1 -0 -1 0 0 1 -1 -2
4 -3 -2 5 -8 2 -4 -3 -5 -3 1 -8 -4 6 -1 1 -0 3 0 -1 -3 -2 -3 -2 1 -0 -2 1 0 3 -1 -0 5 -0 1 1 2 1 -4 -1 -2 -0 0 -2
-6 -1 -3 -1 -9 1 1 3 2 -3 -1 -1 -6 11 -2 3 -0 -0 -2 2 -2 -2 -5 -6 1 2 1 2 0 1 4 -3 0 2 3 -3 3 1 -3 -3 -2 -1 -0 -0
-2 0 -2 -1 2 -3 -3 -1 -1 -1 -5 6 -2 5 -6 -10 -4 -4 5 4 -4 0 3 -3 -9 -1 3 -1 3 -0 3 3 0 3 -2 -3 -4 3 1 -0 0 -1 -4 -3
-0 -0 1 -2 -2 -5 1 -3 -0 -2 3 -6 11 0 3 5 0 -9 -7 -11 11 -1 -5 1 -6 -12 -3 -0 -2 0 -1 2 2 -2 -1 -0 -3 1 1 3 -0 -4 -1 -2
-0 -3 -1 1 1 -0 -4 -2 -1 -0 2 -2 1 3 4 -11 0 -3 0 2 -0 5 2 1 4 -4 -5 -4 1 1 -1 -3 3 3 -1 -3 -1 -1 -3 -5 -4 -4 -1 2
-2 -1 0 -1 -2 -0 -2 7 -0 1 2 1 -1 6 3 -0 -12 6 10 -1 -0 3 4 3 5 7 0 0 -2 2 -2 -0 -0 4 3 1 0 3 2 3 -0 -2 -1 1
1 -2 -1 -1 -1 -4 3 4 1 -0 3 1 -1 -1 -3 -3 -1 9 -4 -2 1 -1 1 1 3 0 -0 -2 -5 3 0 -0 1 2 1 -2 -2 -1 0 3 0 1 -1 -1
-0 -2 -1 -4 -2 3 1 -1 4 1 6 -5 2 10 -8 3 5 -15 0 7 2 1 1 6 1 2 1 1 0 1 -3 -3 -7 -2 -0 3 -1 2 -5 1 17 13 13 11
-1 -1 -3 1 -2 -3 -4 6 0 1 -4 9 3 1 1 7 3 -4 -0 4 4 5 -1 2 -1 0 1 -0 3 -1 -5 4 0 2 -2 -3 -2 5 17 -0 6 6 1 7
1 -1 -0 -2 -2 2 -3 8 -0 -2 1 -2 -1 -1 -2 2 -5 -3 3 3 -3 -6 -0 1 -5 7 -4 2 4 -2 1 -3 3 2 1 1 0 -1 11 17 8 6 8 5
-1 -1 0 -3 -0 -3 3 -3 -0 4 -1 -1 3 1 -3 5 4 -1 1 -13 16 -7 -1 -5 7 -3 -3 -0 0 -0 2 -4 -3 2 -3 -2 2 9 5 4 5 7 1 -1
-4 -0 -1 1 -6 2 -2 -0 -3 1 3 0 -3 -1 -2 1 -1 -1 1 -9 12 -9 6 -7 5 0 2 -4 -0 2 -2 2 0 -1 10 12 12 3 3 8 7 8 2 -5
-4 2 -1 -2 -1 -4 -5 4 -6 5 -3 1 1 -4 4 1 -4 0 -4 -1 2 -5 4 5 -0 2 0 0 1 3 -0 -1 -0 3 7 9 9 8 8 5 6 -7 -8 -4
-3 4 -4 3 0 3 -10 -6 3 -0 -3 4 -1 -5 3 -1 0 0 3 -1 3 -2 -4 1 5 4 2 1 1 1 1 1 -1 3 1 1 1 3 10 3 1 7 -1 -4
-1 0 1 -0 -1 7 -12 -3 5 -6 0 1 -0 0 -2 -1 2 2 -3 2 -3 3 2 -1 -3 -3 -1 0 -0 0 0 -0 0 -0 -1 3 4 4 -2 -1 -4 -1 -0 3
Height
5760 5762 5763 5765 5769 5773 5776 5779 5782 5784 5784 5786 5789 5785 5788 5789 5789 5787 5788 5781 5790 5790 5791 5792 5793 5793 5792 5791 5793 5791 5790 5789 5788 5786 5784 5782 5780 5778 5776 5773 5770 5766 5763 5760
5763 5762 5764 5767 5771 5773 5779 5780 5783 5785 5785 5785 5788 5789 5788 5788 5789 5788 5787 5788 5788 5787 5789 5790 5791 5791 5791 5788 5788 5786 5786 5783 5782 5781 5780 5778 5776 5773 5772 5769 5765 5760 5756 5752
5760 5764 5765 5767 5771 5773 5779 5781 5782 5784 5783 5784 5785 5788 5786 5787 5787 5786 5786 5787 5787 5786 5787 5787 5787 5787 5786 5784 5785 5784 5783 5780 5779 5778 5776 5774 5772 5770 5767 5763 5758 5752 5748 5743
5760 5761 5765 5769 5773 5775 5776 5777 5778 5778 5783 5784 5784 5786 5788 5781 5783 5785 5784 5785 5785 5783 5784 5785 5784 5784 5783 5782 5781 5781 5780 5778 5776 5774 5772 5769 5767 5762 5759 5755 5751 5745 5740 5735
5761 5761 5766 5769 5770 5772 5774 5775 5777 5779 5783 5782 5780 5782 5780 5783 5783 5782 5782 5782 5782 5782 5782 5782 5782 5781 5780 5779 5778 5777 5776 5775 5772 5770 5767 5764 5760 5755 5751 5746 5740 5734 5728 5723
5760 5761 5762 5763 5768 5771 5772 5774 5775 5777 5779 5779 5778 5778 5776 5778 5779 5777 5779 5781 5780 5780 5780 5779 5778 5778 5777 5775 5774 5773 5773 5770 5768 5765 5762 5757 5752 5747 5743 5737 5732 5726 5719 5712
5761 5764 5767 5767 5768 5770 5771 5772 5775 5774 5774 5777 5780 5780 5777 5772 5771 5771 5770 5778 5778 5776 5776 5775 5775 5773 5773 5772 5771 5770 5768 5766 5763 5759 5755 5750 5745 5741 5735 5729 5723 5716 5709 5703
5758 5759 5763 5765 5767 5767 5766 5771 5773 5769 5770 5774 5773 5776 5777 5772 5772 5769 5762 5768 5773 5771 5771 5770 5770 5770 5770 5769 5767 5765 5762 5760 5756 5752 5747 5742 5737 5730 5725 5719 5712 5705 5698 5691
5755 5756 5748 5760 5761 5765 5766 5769 5770 5766 5766 5771 5773 5774 5775 5774 5772 5773 5767 5769 5768 5768 5768 5767 5767 5767 5766 5764 5762 5759 5755 5753 5749 5744 5738 5732 5726 5720 5714 5707 5700 5693 5685 5678
5749 5752 5752 5757 5759 5762 5764 5764 5767 5766 5767 5768 5770 5772 5770 5768 5770 5771 5768 5768 5767 5766 5765 5764 5763 5762 5760 5758 5755 5751 5746 5743 5740 5734 5727 5721 5714 5708 5701 5694 5688 5680 5672 5665
5754 5752 5753 5755 5757 5759 5761 5761 5762 5763 5764 5763 5766 5769 5768 5767 5768 5767 5766 5764 5763 5763 5762 5761 5758 5756 5753 5751 5747 5743 5737 5734 5730 5723 5716 5709 5702 5696 5689 5682 5674 5667 5659 5652
5750 5751 5751 5754 5753 5756 5757 5758 5758 5759 5762 5760 5762 5766 5764 5765 5764 5763 5762 5760 5758 5758 5756 5754 5752 5749 5745 5742 5738 5734 5728 5722 5717 5711 5704 5697 5690 5683 5675 5668 5661 5654 5647 5639
5745 5747 5748 5750 5752 5753 5754 5755 5756 5756 5756 5758 5759 5762 5760 5761 5760 5759 5758 5757 5754 5751 5748 5744 5743 5741 5738 5733 5728 5723 5717 5710 5704 5698 5692 5684 5678 5670 5662 5656 5649 5641 5634 5625
5741 5743 5744 5746 5749 5749 5749 5750 5751 5752 5753 5756 5756 5758 5756 5755 5753 5752 5753 5752 5749 5746 5743 5737 5732 5729 5726 5721 5716 5710 5705 5699 5692 5685 5678 5672 5664 5658 5651 5643 5636 5628 5620 5612
5736 5738 5739 5740 5743 5743 5746 5746 5747 5749 5751 5751 5754 5753 5754 5753 5747 5743 5742 5740 5743 5738 5731 5729 5722 5716 5712 5709 5703 5698 5692 5687 5680 5673 5666 5659 5652 5646 5638 5631 5622 5613 5606 5597
5730 5731 5733 5736 5737 5738 5739 5741 5744 5745 5746 5746 5748 5748 5748 5743 5742 5740 5738 5735 5732 5730 5725 5720 5715 5708 5701 5696 5691 5685 5680 5674 5668 5662 5655 5647 5640 5633 5625 5616 5608 5598 5590 5582
5726 5727 5729 5730 5732 5733 5736 5740 5739 5741 5741 5742 5742 5743 5741 5737 5732 5731 5733 5727 5721 5720 5715 5709 5704 5698 5691 5685 5678 5673 5668 5662 5656 5651 5644 5637 5629 5621 5612 5603 5593 5584 5576 5567
5721 5722 5724 5726 5728 5729 5733 5734 5735 5735 5737 5736 5735 5734 5731 5728 5726 5725 5719 5715 5712 5706 5702 5697 5692 5686 5680 5673 5667 5663 5657 5651 5645 5639 5631 5623 5616 5607 5598 5589 5578 5567 5558 5549
5716 5718 5720 5721 5723 5727 5727 5728 5730 5729 5730 5727 5727 5727 5724 5721 5718 5713 5709 5706 5701 5695 5691 5686 5680 5675 5669 5663 5658 5653 5645 5638 5632 5625 5618 5610 5602 5593 5584 5574 5564 5554 5543 5532
5713 5714 5716 5718 5719 5720 5721 5723 5723 5723 5722 5721 5721 5718 5715 5713 5709 5704 5700 5695 5690 5685 5680 5673 5669 5663 5658 5653 5647 5641 5634 5628 5619 5612 5604 5596 5587 5578 5571 5562 5552 5541 5530 5521
5710 5711 5713 5713 5714 5716 5716 5717 5716 5716 5717 5713 5711 5708 5705 5701 5697 5692 5687 5683 5678 5672 5667 5662 5657 5653 5647 5643 5637 5629 5622 5615 5609 5600 5592 5584 5575 5566 5556 5544 5533 5525 5516 5507
5707 5708 5709 5710 5710 5711 5711 5710 5710 5709 5706 5703 5701 5698 5694 5690 5686 5681 5676 5671 5670 5663 5656 5653 5648 5642 5636 5631 5624 5617 5610 5601 5594 5587 5578 5569 5560 5550 5540 5531 5521 5510 5501 5493
5704 5705 5705 5706 5704 5704 5703 5703 5700 5699 5697 5694 5690 5686 5681 5677 5673 5668 5664 5659 5658 5649 5647 5640 5636 5629 5623 5617 5611 5603 5596 5589 5581 5572 5564 5554 5545 5538 5527 5517 5508 5499 5488 5478
5697 5698 5698 5699 5698 5695 5693 5694 5691 5689 5685 5681 5678 5674 5670 5667 5662 5658 5653 5649 5644 5638 5635 5628 5624 5618 5611 5604 5597 5590 5582 5574 5565 5558 5550 5540 5531 5522 5513 5505 5494 5482 5474 5467
5691 5692 5691 5691 5690 5687 5683 5681 5680 5678 5673 5670 5666 5662 5661 5656 5652 5647 5642 5636 5632 5625 5621 5617 5611 5604 5597 5589 5582 5574 5565 5557 5549 5542 5535 5526 5518 5510 5500 5490 5483 5473 5462 5452
5683 5683 5683 5681 5680 5679 5674 5672 5669 5665 5662 5659 5655 5652 5648 5644 5639 5634 5629 5624 5619 5614 5608 5602 5595 5589 5581 5574 5566 5557 5549 5542 5534 5527 5519 5511 5502 5493 5484 5477 5470 5461 5452 5442